Track COSMOS 2353 now! 10-day predictions COSMOS 2353 is classified as:
1 25364U 98036B 22136.70544674 .00000017 00000-0 37847-4 0 9998 2 25364 82.5861 144.7240 0357150 95.1520 269.0404 12.21812044 66762